TimeMST,TemperatureF,Dew PointF,Humidity,Sea Level PressureIn,VisibilityMPH,Wind Direction,Wind SpeedMPH,Gust SpeedMPH,PrecipitationIn,Events,Conditions,WindDirDegrees,DateUTC
12:53 AM,8.1,3.0,80,30.18,10.0,Calm,Calm,-,N/A,,Overcast,0,2013-02-23 07:53:00
1:53 AM,7.0,1.0,77,30.18,10.0,Calm,Calm,-,N/A,,Mostly Cloudy,0,2013-02-23 08:53:00
2:53 AM,6.1,1.0,80,30.16,10.0,Calm,Calm,-,N/A,,Overcast,0,2013-02-23 09:53:00
3:53 AM,7.0,1.9,80,30.15,10.0,Calm,Calm,-,N/A,,Overcast,0,2013-02-23 10:53:00
4:53 AM,10.9,5.0,77,30.11,10.0,Calm,Calm,-,N/A,,Overcast,0,2013-02-23 11:53:00
5:53 AM,10.9,6.1,81,30.10,10.0,Calm,Calm,-,N/A,,Overcast,0,2013-02-23 12:53:00
6:53 AM,12.9,7.0,77,30.10,10.0,West,3.5,-,N/A,,Overcast,280,2013-02-23 13:53:00
7:53 AM,19.9,9.0,62,30.06,10.0,East,8.1,-,N/A,,Overcast,80,2013-02-23 14:53:00
8:50 AM,21.2,10.4,63,29.88,6.0,East,3.5,-,0.00,Snow,Light Snow,80,2013-02-23 15:50:00
8:53 AM,21.9,10.0,60,30.07,6.0,NE,5.8,-,0.00,Snow,Light Snow,40,2013-02-23 15:53:00
9:01 AM,21.2,10.4,63,29.88,2.5,NE,3.5,-,0.00,Snow,Light Snow,40,2013-02-23 16:01:00
9:08 AM,21.2,12.2,68,29.88,1.0,NE,5.8,-,0.00,Snow,Light Snow,50,2013-02-23 16:08:00
9:10 AM,21.2,12.2,68,29.88,0.8,ENE,5.8,-,0.00,Snow,Light Snow,60,2013-02-23 16:10:00
9:20 AM,19.4,15.8,86,29.87,0.5,ENE,5.8,-,0.01,Snow,Snow,60,2013-02-23 16:20:00
9:37 AM,21.2,15.8,80,29.86,1.0,ENE,9.2,-,0.01,Snow,Light Snow,70,2013-02-23 16:37:00
9:51 AM,21.2,15.8,80,29.86,1.0,ENE,6.9,-,0.01,Snow,Light Snow,70,2013-02-23 16:51:00
9:53 AM,21.0,16.0,81,30.05,1.0,East,6.9,-,0.01,Snow,Light Snow,80,2013-02-23 16:53:00
10:06 AM,21.2,15.8,80,29.84,1.8,East,4.6,-,0.00,Snow,Light Snow,100,2013-02-23 17:06:00
10:14 AM,21.2,15.8,80,29.84,2.5,East,5.8,-,0.00,Snow,Light Snow,90,2013-02-23 17:14:00
10:23 AM,21.2,15.8,80,29.83,3.0,East,9.2,-,0.00,Snow,Light Snow,90,2013-02-23 17:23:00
10:53 AM,23.0,16.0,74,30.01,2.5,East,10.4,-,0.00,Snow,Light Snow,80,2013-02-23 17:53:00
11:09 AM,23.0,15.8,74,29.82,3.0,ENE,9.2,-,0.00,Snow,Light Snow,70,2013-02-23 18:09:00
11:17 AM,23.0,17.6,80,29.81,1.8,East,5.8,-,0.00,Snow,Light Snow,100,2013-02-23 18:17:00
11:24 AM,23.0,17.6,80,29.81,0.8,East,6.9,-,0.00,Snow,Light Snow,100,2013-02-23 18:24:00
11:31 AM,23.0,17.6,80,29.81,0.2,East,6.9,-,0.01,Snow,Heavy Snow,90,2013-02-23 18:31:00
11:53 AM,23.0,18.0,81,30.00,0.8,East,6.9,-,0.01,Snow,Light Snow,90,2013-02-23 18:53:00
12:04 PM,23.0,19.4,86,29.79,1.0,ENE,8.1,-,0.00,Snow,Light Snow,70,2013-02-23 19:04:00
12:09 PM,24.8,19.4,80,29.79,0.8,ENE,9.2,-,0.00,Snow,Light Snow,70,2013-02-23 19:09:00
12:28 PM,24.8,19.4,80,29.77,1.2,ENE,10.4,-,0.01,Snow,Light Snow,70,2013-02-23 19:28:00
12:36 PM,24.8,19.4,80,29.77,2.5,ENE,10.4,-,0.01,Snow,Light Snow,70,2013-02-23 19:36:00
12:38 PM,24.8,19.4,80,29.76,3.0,ENE,12.7,-,0.01,Snow,Light Snow,70,2013-02-23 19:38:00
12:53 PM,25.0,19.0,78,29.93,6.0,East,11.5,-,0.01,Snow,Light Snow,80,2013-02-23 19:53:00
1:53 PM,26.1,19.9,78,29.89,4.0,East,11.5,-,0.00,Snow,Light Snow,80,2013-02-23 20:53:00
2:53 PM,27.0,19.0,72,29.86,9.0,East,8.1,-,0.00,Snow,Light Snow,90,2013-02-23 21:53:00
3:53 PM,28.0,21.0,75,29.85,8.0,East,5.8,-,0.00,Snow,Light Snow,90,2013-02-23 22:53:00
4:29 PM,28.4,21.2,74,29.69,4.0,NE,4.6,-,0.00,Snow,Light Snow,40,2013-02-23 23:29:00
4:36 PM,26.6,21.2,80,29.69,1.8,NE,5.8,-,0.00,Snow,Light Snow,40,2013-02-23 23:36:00
4:53 PM,27.0,21.0,78,29.85,1.0,NE,3.5,-,0.00,Snow,Light Snow,40,2013-02-23 23:53:00
4:57 PM,26.6,21.2,80,29.69,0.8,ENE,3.5,-,0.00,Snow,Light Snow,60,2013-02-23 23:57:00
5:12 PM,26.6,21.2,80,29.69,1.0,Calm,Calm,-,0.00,Snow,Light Snow,0,2013-02-24 00:12:00
5:22 PM,26.6,21.2,80,29.70,1.2,Calm,Calm,-,0.00,Snow,Light Snow,0,2013-02-24 00:22:00
5:30 PM,26.6,21.2,80,29.70,0.8,Calm,Calm,-,0.00,Snow,Light Snow,0,2013-02-24 00:30:00
5:51 PM,24.8,21.2,86,29.70,0.5,Calm,Calm,-,0.01,Fog-Snow,Light Snow,0,2013-02-24 00:51:00
5:53 PM,25.0,21.9,88,29.88,0.5,Calm,Calm,-,0.01,Fog-Snow,Light Snow,0,2013-02-24 00:53:00
6:00 PM,24.8,21.2,86,29.71,0.5,Calm,Calm,-,0.01,Fog-Snow,Snow,0,2013-02-24 01:00:00
6:15 PM,24.8,23.0,93,29.72,1.0,Calm,Calm,-,0.01,Snow,Light Snow,0,2013-02-24 01:15:00
6:27 PM,24.8,23.0,93,29.72,0.8,Calm,Calm,-,N/A,Snow,Light Snow,0,2013-02-24 01:27:00
6:43 PM,24.8,21.2,86,29.73,0.8,Calm,Calm,-,0.04,Snow,Light Snow,0,2013-02-24 01:43:00
6:53 PM,25.0,21.9,88,29.89,0.8,NW,3.5,-,0.05,Snow,Light Snow,320,2013-02-24 01:53:00
6:59 PM,24.8,21.2,86,29.73,1.0,NW,4.6,-,0.00,Snow,Light Snow,310,2013-02-24 01:59:00
7:14 PM,24.8,21.2,86,29.73,0.8,West,6.9,-,0.01,Snow,Light Snow,280,2013-02-24 02:14:00
7:22 PM,24.8,21.2,86,29.73,1.0,WNW,4.6,-,0.01,Snow,Light Snow,290,2013-02-24 02:22:00
7:35 PM,24.8,21.2,86,29.74,1.2,WNW,9.2,-,0.02,Snow,Light Snow,290,2013-02-24 02:35:00
7:46 PM,24.8,21.2,86,29.74,1.5,West,8.1,-,0.02,Snow,Light Snow,280,2013-02-24 02:46:00
7:53 PM,25.0,21.9,88,29.86,1.2,West,6.9,-,0.02,Snow,Light Snow,280,2013-02-24 02:53:00
8:03 PM,24.8,21.2,86,29.74,1.8,West,5.8,-,N/A,Snow,Light Snow,280,2013-02-24 03:03:00
8:10 PM,24.8,21.2,86,29.73,2.5,West,6.9,-,0.00,Snow,Light Snow,280,2013-02-24 03:10:00
8:19 PM,24.8,21.2,86,29.73,3.0,West,6.9,-,0.00,Snow,Light Snow,280,2013-02-24 03:19:00
8:28 PM,24.8,21.2,86,29.74,2.5,West,10.4,-,0.00,Snow,Light Snow,260,2013-02-24 03:28:00
8:44 PM,24.8,21.2,86,29.74,1.2,West,10.4,-,0.00,Snow,Light Snow,280,2013-02-24 03:44:00
8:53 PM,25.0,21.0,85,29.86,1.8,West,8.1,-,0.00,Snow,Light Snow,280,2013-02-24 03:53:00
8:57 PM,24.8,21.2,86,29.74,3.0,West,8.1,-,0.00,Snow,Light Snow,280,2013-02-24 03:57:00
9:11 PM,24.8,19.4,80,29.74,4.0,West,10.4,-,0.00,Snow,Light Snow,270,2013-02-24 04:11:00
9:40 PM,23.0,12.2,63,29.75,9.0,NW,8.1,-,0.00,,Overcast,320,2013-02-24 04:40:00
9:53 PM,23.0,12.0,63,29.88,10.0,WNW,5.8,-,0.00,,Overcast,300,2013-02-24 04:53:00
10:53 PM,19.9,12.0,71,29.89,10.0,West,9.2,-,N/A,,Overcast,270,2013-02-24 05:53:00
11:53 PM,19.9,12.0,71,29.90,4.0,West,9.2,-,0.00,Snow,Light Snow,260,2013-02-24 06:53:00
11:59 PM,19.4,12.2,74,29.76,2.5,West,8.1,-,0.00,Snow,Light Snow,270,2013-02-24 06:59:00